Regional Weather Roundup
Issued by NWS

Home | Current Version | Previous Version | Graphics & Text | Print | Product List | Glossary On
Versions: 1 2 3 4 5 6 7 8 9 10 11 12 13 14 15 16 17 18 19 20 21 22 23 24 25 26 27 28 29 30 31 32 33 34 35 36 37 38 39 40 41 42 43 44 45 46 47 48 49 50
000
ASUS43 KDTX 311301
RWRMI
MICHIGAN HOURLY REGIONAL WEATHER ROUNDUP
NATIONAL WEATHER SERVICE DETROIT/PONTIAC MI
900 AM EDT THU JUL 31 2014

NOTE: "FAIR" INDICATES FEW OR NO CLOUDS BELOW 12,000 FEET WITH NO
SIGNIFICANT WEATHER AND/OR OBSTRUCTION TO VISIBILITY.

MIZ047>049-052>055-059>063-066>070-074>076-081>083-311400-
SOUTHEAST LOWER MICHIGAN

CITY           SKY/WX    TMP DP  RH WIND       PRES   REMARKS
ADRIAN         SUNNY     61  55  81 W3        30.06R
ALMA           SUNNY     60  55  81 SW7       30.01S
ANN ARBOR      PTSUNNY   59  54  83 CALM      30.04S
BAD AXE        PTSUNNY   59  59 100 SW5       30.00S
CARO           CLOUDY    60  59  96 S6        30.00S
DETROIT CITY   CLOUDY    62  51  67 SW6       30.03R
DETROIT        PTSUNNY   60  54  80 W5        30.05R
FLINT          MOSUNNY   61  52  72 CALM      30.02F
GROSSE ILE     PTSUNNY   61  55  82 W5        30.03S
HILLSDALE      SUNNY     65  56  72 CALM      30.05S
HOWELL         SUNNY     59  53  81 SW3       30.03S

CITY           SKY/WX    TMP DP  RH WIND       PRES   REMARKS
JACKSON        SUNNY     62  52  69 SW8       30.04S
LAMBERTVILLE   SUNNY     63  54  72 CALM      30.05S
LANSING        SUNNY     63  52  67 SW7       30.02S
LAPEER         FAIR      60  51  73 CALM      30.03S
MASON          SUNNY     61  52  70 SW5       30.03S
MONROE         SUNNY     63  55  77 W5        30.03S
MT. CLEMENS    CLOUDY    62  54  76 W6        30.02R
PONTIAC        PTSUNNY   59  52  77 SW6       30.03R
PORT HOPE        N/A     61  57  87 VRB5      29.97S
PORT HURON     MOSUNNY   59  59 100 W3        30.02R
TRI CITIES     SUNNY     61  53  75 SW7       30.01S
TROY           CLOUDY    61  52  71 W6        30.04R
SAGINAW HB     MOSUNNY   61  54  77 S6        30.00F
$$
MIZ043>046-050>051-056>058-064>065-071>073-077>080-311400-
SOUTHWEST LOWER MICHIGAN

CITY           SKY/WX    TMP DP  RH WIND       PRES   REMARKS
BATTLE CREEK   MOSUNNY   64  54  69 SW12      30.04R
BENTON HARBOR  PTSUNNY   63  58  83 SW6       30.03R
BIG RAPIDS     CLOUDY    60  60 100 W7        30.00R
COLDWATER      SUNNY     63  56  80 SW6       30.04S
FREMONT        FAIR      61  60  97 CALM      30.00S
HOLLAND        CLOUDY    67  62  84 SW12      30.02S
GRAND RAPIDS   MOSUNNY   66  60  81 W13       30.02S
IONIA          FAIR      62  54  76 W8        30.01S
KALAMAZOO      PTSUNNY   63  55  75 SW7       30.04S
LUDINGTON      SUNNY     61  58  89 CALM      29.99S
MARSHALL       SUNNY     61  54  78 SW5       30.04S
MOUNT PLEASANT SUNNY     61  55  81 W7        29.99S
MUSKEGON       MOSUNNY   64  58  80 W8        30.01R
SOUTH HAVEN    CLOUDY    63  61  94 SW6       30.02S
$$
MIZ016>042-311400-
NORTHERN LOWER MICHIGAN

CITY           SKY/WX    TMP DP  RH WIND       PRES   REMARKS
BEAVER ISLAND  SUNNY     60  60 100 SW6       29.94F
BELLAIRE       SUNNY     59  53  79 S5        29.96S
CADILLAC       SUNNY     58  54  86 SW7       29.98S
CHARLEVOIX     MOSUNNY   63  60  91 W8        29.98R
FRANKFORT      SUNNY     61  56  82 CALM      29.97S
GAYLORD        MOSUNNY   56  52  86 W7        29.97S
GRAYLING       MOSUNNY   57  52  83 W7        29.98S
HARBOR SPRINGS CLOUDY    60  55  84 SW3       29.96R
HOUGHTON LAKE  SUNNY     59  52  77 W7        29.98S
MANISTEE       SUNNY     55  52  88 E3        29.99R
OSCODA         PTSUNNY   60  57  89 SW3       29.97S
PELLSTON       SUNNY     62  57  83 SW5       29.95S
ROGERS CITY    MOSUNNY   60  56  85 SW8       29.96S
TRAVERSE CITY  MOSUNNY   61  54  77 S3        29.96S
$$
MIZ007>008-015-311400-
EASTERN UPPER MICHIGAN

CITY           SKY/WX    TMP DP  RH WIND       PRES   REMARKS
KINROSS        CLOUDY    55  55 100 SW5       29.92F
MACKINAC ISLAN MOSUNNY   60  59  96 W7        29.93S
NEWBERRY       MOSUNNY   56  54  92 SW10      29.92S
S. S. MARIE    CLOUDY    56  53  90 S3        29.91F
$$
MIZ004>006-011>014-085-311400-
CENTRAL UPPER MICHIGAN

CITY           SKY/WX    TMP DP  RH WIND       PRES   REMARKS
MANISTIQUE     SUNNY     58  56  94 CALM      29.93S
ESCANABA       MOSUNNY   57  54  88 W3        29.94F
MENOMINEE      SUNNY     57  55  94 N3        29.96S
SAWYER-GWINN   SUNNY     59  55  88 W6        29.94S
$$
MIZ001>003-009>011-084-311400-
WESTERN UPPER MICHIGAN

CITY           SKY/WX    TMP DP  RH WIND       PRES   REMARKS
IRON MOUNTAIN  SUNNY     58  54  86 NW3       29.95S
HOUGHTON       SUNNY     60  54  80 W13       29.92S
COPPER HARBOR    N/A     62  56  80 N8        29.91S
$$

ABBREVIATIONS USED IN REMARKS
   TC - TEMPERATURE IN CELSIUS
  WCI - WIND CHILL INDEX
   HX - HEAT INDEX
  VSB - VISIBILITY



USA.gov is the U.S. government's official web portal to all federal, state and local government web resources and services.